Wind_Speed
29 29 28 29 29 29 29 29 28 27 27 27 27 26 26 27 27 27 26 25 25 25 25 24 24 24 23 23 23 23 23 23 23 23 23 22 22 22 22 22 21 21 20
31 31 30 30 29 29 29 28 28 28 28 28 27 28 28 28 29 29 29 28 28 28 28 28 27 26 26 26 26 26 25 26 26 25 25 25 24 24 24 24 24 23 23
32 32 31 31 30 30 30 29 29 29 29 29 29 29 29 29 29 30 30 30 30 30 30 30 29 29 28 28 28 28 27 27 27 27 27 27 27 26 26 26 26 26 25
33 33 33 33 32 31 31 31 30 31 31 31 31 31 31 31 30 30 31 32 32 32 32 32 32 31 31 31 31 30 30 29 29 29 29 29 29 29 28 28 28 27 27
34 34 34 34 34 33 32 33 32 32 32 32 32 32 32 32 32 31 31 32 33 32 33 33 34 33 33 33 32 32 32 31 31 31 31 31 32 31 30 30 30 29 29
35 35 35 35 35 35 34 34 33 33 34 33 33 33 33 33 33 33 32 32 33 33 34 34 35 35 35 35 35 34 34 34 33 33 34 33 33 33 33 32 32 32 31
36 36 36 36 36 36 36 35 35 35 35 35 34 34 34 35 35 35 34 33 34 34 35 36 36 37 37 37 37 37 36 36 35 36 36 36 35 35 35 35 35 34 34
37 37 37 37 37 37 37 37 36 36 36 37 37 36 35 35 36 35 35 36 36 36 36 37 37 38 38 38 38 38 38 38 38 38 38 38 37 37 38 38 37 37 37
38 38 39 39 39 39 39 39 39 38 38 38 38 38 38 37 36 36 36 37 38 38 38 39 39 40 41 41 40 40 40 41 41 41 41 41 40 39 39 40 39 39 39
39 39 40 40 40 39 39 40 40 40 40 40 40 39 40 39 39 38 38 38 39 39 40 40 40 41 42 42 42 42 42 42 42 43 43 43 43 42 42 42 41 41 41
40 39 39 40 40 40 39 40 40 40 40 40 40 40 40 40 40 40 40 40 40 41 41 41 41 42 42 43 43 43 43 43 43 44 44 44 44 44 44 44 43 43 43
39 39 39 40 40 40 40 40 40 40 40 40 40 40 40 41 41 41 41 41 41 42 42 43 43 43 43 44 44 43 44 44 45 45 46 45 45 45 45 45 45 45 45
39 39 39 40 40 41 40 41 41 41 41 41 40 40 40 41 41 42 42 42 42 42 42 42 43 42 43 43 43 44 45 45 46 46 47 47 47 47 47 47 47 46 46
40 40 40 40 40 41 42 42 42 42 42 42 41 42 42 41 41 42 42 42 42 43 43 42 43 43 43 44 44 45 45 46 46 47 47 47 47 48 48 48 48 48 47
41 41 40 41 41 42 42 43 43 43 43 43 43 44 43 42 42 42 43 43 43 43 43 43 43 43 44 44 44 44 45 46 46 47 47 47 47 47 47 47 48 48 48
42 42 42 42 42 42 43 43 43 43 44 44 43 43 43 43 43 44 44 44 44 44 43 43 44 45 45 45 45 46 46 47 47 47 48 48 48 49 49 48 49 49 49
43 43 43 43 43 43 43 43 43 43 44 44 44 43 44 44 45 44 44 44 44 45 45 44 45 45 45 45 46 47 47 47 48 48 49 49 50 49 50 50 50 49 49
43 43 44 44 44 44 44 44 44 44 44 44 44 44 44 44 44 44 44 44 44 45 45 45 45 46 46 47 47 48 47 48 48 48 49 49 50 50 50 51 51 51 50
44 44 44 44 44 44 44 44 44 44 43 44 44 44 44 44 44 44 44 44 45 46 46 46 46 46 47 48 48 48 47 47 48 49 50 50 50 50 51 51 51 51 50
44 44 44 44 44 44 44 44 44 44 44 44 44 44 44 44 44 44 45 44 45 45 45 45 45 46 47 48 48 48 48 48 49 49 50 51 51 51 51 51 51 51 51
45 45 45 45 45 45 45 44 44 45 44 44 44 45 44 44 43 43 43 44 44 45 45 46 46 46 47 47 48 49 49 50 50 50 51 51 51 51 51 51 51 51 51
45 45 45 45 44 44 45 45 45 45 45 45 45 45 45 45 44 44 43 44 45 45 45 46 46 47 47 48 48 49 50 50 50 51 51 51 51 51 51 51 51 52 52
46 46 45 45 45 44 45 45 45 46 45 45 46 45 45 45 45 45 45 45 46 46 46 47 47 47 47 47 48 49 49 49 49 50 50 49 49 49 50 51 52 53 53
46 46 46 45 45 45 45 45 45 45 45 45 45 46 45 46 46 47 47 46 46 46 47 47 46 46 47 48 48 48 48 48 48 48 50 49 49 49 50 51 51 51 52
45 45 46 45 45 45 45 45 44 44 45 45 46 46 46 46 46 47 47 46 46 46 46 46 46 45 46 47 47 47 47 47 47 48 48 49 49 50 50 51 50 50 51
45 45 45 45 45 44 45 45 44 44 44 45 45 45 45 45 45 45 45 45 45 45 45 44 45 45 45 46 47 47 47 47 47 47 48 48 48 49 49 49 49 49 50
Wind_Direction
244 244 245 246 247 248 248 247 248 249 250 250 251 251 252 254 255 256 257 258 259 260 260 260 262 262 263 265 266 267 268 270 272 275 276 277 278 280 281 281 282 284 286
243 244 246 247 247 247 248 248 247 249 250 251 252 253 254 255 255 256 257 258 259 261 261 261 261 261 263 265 267 268 269 270 271 272 274 274 276 278 280 280 280 281 283
244 245 246 247 248 248 248 249 249 249 250 251 252 253 255 257 257 258 258 258 259 260 261 261 261 262 263 266 268 269 269 269 271 271 273 274 275 276 278 279 279 280 281
244 245 246 246 248 249 249 250 250 251 251 252 253 254 255 257 259 259 259 260 260 261 261 261 260 263 265 266 267 268 269 270 270 271 272 273 275 276 277 278 277 278 280
244 245 246 247 248 249 250 251 252 252 253 254 255 255 257 258 259 259 260 261 262 263 263 262 262 263 265 266 267 268 268 268 269 271 272 273 274 275 276 276 276 277 278
244 246 247 247 248 249 250 252 252 254 255 254 256 257 258 260 261 261 261 262 263 263 263 263 262 264 265 266 267 267 267 267 269 270 271 273 274 275 275 275 275 275 277
245 246 247 248 248 249 250 251 252 254 256 256 258 258 258 259 261 262 262 264 264 264 264 264 264 263 265 266 266 267 267 267 268 270 272 273 274 274 275 275 275 275 276
246 247 247 248 248 249 250 251 252 254 256 258 258 259 260 260 260 261 263 264 265 265 265 264 265 265 265 265 266 266 267 267 268 269 271 272 273 274 275 275 275 274 276
248 248 248 248 249 250 250 251 252 254 255 258 259 260 261 261 261 263 263 265 265 266 266 266 266 267 267 266 265 266 267 267 268 269 269 270 272 273 273 274 274 274 275
249 250 249 249 250 251 251 252 253 254 257 258 260 262 263 263 262 264 264 265 265 266 267 268 268 268 268 267 266 267 268 268 269 269 270 271 272 272 273 273 273 273 274
249 250 250 250 251 252 252 253 254 256 258 259 260 262 263 263 264 265 264 264 265 266 267 268 268 268 269 268 267 267 267 268 269 269 270 271 272 272 273 273 273 273 274
249 250 251 251 251 252 252 253 254 255 257 259 260 262 263 264 265 265 265 265 265 266 267 267 267 268 269 269 268 268 268 269 269 269 270 270 271 271 272 273 273 273 274
249 250 250 251 251 251 252 253 255 256 258 260 261 263 264 264 266 266 265 266 266 267 268 268 268 269 269 270 270 269 269 269 270 270 270 270 270 271 272 272 272 272 273
248 248 251 252 253 253 253 254 256 257 258 261 262 263 265 265 266 266 266 266 266 267 269 269 269 269 270 270 271 271 270 270 270 271 271 271 272 272 272 272 272 271 271
247 249 251 253 253 254 255 256 256 257 259 261 262 264 265 266 267 267 266 267 268 268 269 269 270 270 271 271 272 272 271 271 270 271 271 272 273 273 272 272 272 272 272
248 249 250 253 254 255 255 257 257 258 259 261 262 264 265 266 268 268 268 268 269 269 269 269 270 271 271 271 272 272 273 272 271 272 272 272 273 273 273 274 274 273 273
250 251 251 253 255 255 256 257 257 259 260 261 262 264 265 267 268 269 269 269 269 269 269 269 270 270 271 272 272 272 273 272 273 274 274 274 274 274 274 275 275 274 275
252 253 253 253 255 256 256 257 258 259 259 261 262 263 264 266 267 268 269 270 269 270 270 270 270 270 271 272 272 272 272 273 273 274 274 275 275 274 275 275 275 274 275
252 253 254 255 256 257 256 257 258 258 259 261 262 262 264 266 267 267 268 269 269 270 271 270 270 271 272 272 272 272 272 273 274 274 275 275 275 275 275 275 274 274 275
251 253 254 255 256 257 257 257 258 259 260 261 262 263 264 266 266 267 268 269 270 271 271 271 271 272 272 272 272 272 272 272 274 275 276 275 275 275 275 275 274 274 275
251 252 254 255 256 256 257 257 259 259 260 260 262 263 264 265 266 267 268 270 271 272 271 271 271 272 273 273 273 273 273 273 273 275 275 275 275 275 275 275 274 275 276
250 251 254 255 256 256 257 258 259 260 260 260 261 263 263 265 265 267 268 270 271 271 271 271 272 273 273 273 272 273 274 273 274 274 274 274 275 275 275 274 274 276 277
250 251 253 254 255 257 257 258 258 259 260 261 262 263 264 265 265 266 268 269 271 271 271 272 273 274 274 273 273 273 274 274 274 273 273 274 275 277 277 275 275 276 277
250 251 252 253 254 255 257 258 259 260 260 262 262 263 264 265 266 267 267 270 271 271 272 273 274 274 274 273 273 274 274 274 274 274 274 275 275 276 276 276 276 277 278
250 251 253 255 255 256 256 257 259 260 261 262 263 264 264 266 267 268 269 270 270 271 272 273 274 275 275 274 274 275 276 276 277 276 276 277 276 275 276 276 276 277 279
251 252 254 255 256 256 257 257 259 260 262 263 263 264 265 266 267 269 269 269 270 271 273 274 275 276 277 276 275 276 277 278 278 277 277 277 276 275 275 275 276 277 279
Height
5818 5820 5822 5824 5826 5828 5830 5831 5833 5835 5836 5837 5838 5840 5841 5842 5842 5843 5844 5844 5845 5845 5845 5845 5845 5845 5846 5846 5846 5846 5846 5846 5846 5846 5845 5845 5844 5844 5843 5842 5842 5841 5840
5812 5815 5817 5818 5820 5822 5824 5825 5827 5829 5830 5832 5833 5834 5835 5836 5837 5838 5838 5839 5839 5840 5840 5840 5840 5840 5841 5841 5841 5841 5841 5841 5841 5840 5840 5840 5839 5839 5838 5837 5837 5836 5835
5806 5808 5810 5812 5814 5816 5818 5820 5821 5823 5824 5826 5827 5828 5829 5830 5831 5831 5832 5833 5833 5834 5834 5834 5834 5835 5835 5835 5835 5835 5835 5835 5835 5834 5834 5834 5834 5833 5833 5832 5831 5831 5830
5799 5801 5804 5806 5808 5810 5812 5813 5815 5817 5818 5819 5820 5822 5823 5824 5824 5825 5825 5826 5826 5827 5827 5827 5828 5828 5828 5829 5829 5829 5829 5829 5829 5828 5828 5828 5827 5827 5827 5826 5825 5825 5824
5791 5794 5796 5798 5801 5803 5805 5807 5809 5810 5811 5813 5814 5815 5816 5817 5817 5818 5819 5819 5819 5820 5820 5820 5821 5821 5821 5822 5822 5822 5822 5822 5822 5822 5821 5821 5821 5820 5820 5819 5819 5819 5818
5784 5786 5788 5791 5793 5795 5797 5799 5801 5803 5804 5806 5807 5808 5809 5810 5810 5811 5811 5812 5812 5812 5813 5813 5813 5813 5814 5814 5814 5814 5814 5815 5814 5814 5814 5814 5814 5813 5813 5812 5812 5811 5811
5776 5778 5781 5783 5785 5787 5790 5792 5793 5795 5796 5798 5799 5800 5801 5802 5803 5803 5804 5804 5804 5804 5805 5805 5805 5805 5805 5806 5806 5806 5806 5806 5806 5806 5806 5806 5806 5805 5805 5804 5804 5803 5803
5767 5770 5772 5774 5777 5779 5781 5783 5785 5787 5788 5790 5791 5792 5793 5794 5795 5795 5795 5796 5796 5796 5796 5796 5796 5796 5796 5797 5797 5797 5797 5797 5797 5797 5797 5797 5797 5797 5796 5796 5795 5795 5794
5759 5761 5763 5765 5767 5770 5772 5774 5776 5778 5779 5781 5782 5783 5785 5785 5786 5787 5787 5787 5787 5787 5787 5787 5787 5787 5787 5787 5787 5787 5788 5788 5788 5788 5788 5787 5787 5787 5787 5787 5786 5786 5785
5749 5751 5754 5756 5758 5761 5763 5765 5767 5769 5770 5772 5773 5774 5775 5776 5777 5778 5778 5777 5777 5778 5778 5777 5777 5777 5777 5777 5777 5777 5777 5777 5778 5778 5778 5778 5777 5777 5777 5776 5776 5776 5775
5740 5742 5744 5746 5749 5751 5753 5755 5757 5759 5761 5762 5763 5764 5765 5766 5767 5767 5768 5768 5768 5768 5768 5768 5767 5767 5766 5766 5766 5767 5767 5767 5767 5767 5767 5767 5766 5766 5766 5765 5765 5765 5764
5730 5733 5735 5737 5739 5741 5743 5745 5747 5749 5751 5752 5753 5754 5755 5756 5756 5757 5757 5758 5758 5758 5758 5757 5757 5756 5756 5756 5756 5756 5755 5755 5755 5755 5755 5755 5755 5754 5754 5754 5753 5753 5753
5721 5723 5725 5728 5730 5732 5734 5736 5737 5739 5741 5742 5743 5744 5744 5745 5745 5746 5746 5747 5747 5748 5748 5747 5746 5746 5745 5745 5745 5744 5744 5744 5744 5743 5743 5743 5742 5742 5742 5742 5741 5741 5741
5711 5714 5716 5718 5720 5722 5724 5726 5728 5729 5730 5732 5733 5733 5734 5734 5734 5735 5735 5736 5737 5737 5737 5737 5736 5735 5734 5734 5734 5733 5733 5732 5732 5731 5731 5731 5730 5730 5729 5729 5729 5728 5728
5701 5704 5706 5708 5710 5712 5714 5716 5717 5719 5720 5721 5722 5723 5723 5723 5724 5724 5724 5725 5726 5726 5727 5726 5725 5724 5723 5723 5722 5722 5721 5720 5720 5719 5719 5718 5718 5717 5716 5716 5716 5715 5715
5691 5693 5696 5698 5700 5701 5703 5705 5707 5708 5709 5711 5711 5712 5713 5713 5713 5713 5713 5714 5714 5715 5715 5715 5714 5713 5712 5712 5711 5711 5710 5709 5708 5707 5707 5706 5706 5705 5704 5703 5703 5702 5702
5680 5683 5685 5687 5689 5691 5692 5694 5696 5697 5698 5700 5700 5701 5702 5702 5702 5702 5702 5702 5703 5703 5703 5704 5703 5702 5701 5700 5699 5698 5698 5697 5696 5695 5694 5693 5692 5692 5691 5690 5689 5689 5688
5670 5672 5674 5676 5678 5680 5681 5683 5685 5686 5687 5689 5689 5690 5691 5691 5692 5692 5692 5691 5691 5691 5691 5692 5691 5690 5690 5689 5687 5686 5685 5684 5683 5682 5681 5680 5679 5678 5677 5676 5676 5675 5674
5659 5661 5663 5665 5667 5669 5670 5672 5673 5675 5676 5677 5678 5679 5680 5680 5681 5681 5681 5680 5680 5680 5679 5679 5679 5678 5677 5676 5675 5674 5673 5672 5671 5670 5668 5667 5666 5665 5664 5663 5661 5661 5660
5648 5650 5652 5654 5656 5658 5659 5661 5662 5664 5665 5666 5667 5668 5669 5669 5669 5669 5669 5669 5669 5668 5668 5667 5666 5666 5664 5663 5662 5661 5660 5659 5658 5656 5655 5654 5652 5651 5650 5649 5648 5648 5647
5637 5639 5641 5643 5645 5647 5648 5650 5651 5652 5653 5655 5656 5657 5657 5658 5658 5658 5658 5658 5657 5656 5656 5655 5654 5653 5652 5651 5650 5648 5647 5646 5645 5643 5641 5640 5639 5638 5637 5636 5635 5634 5633
5626 5628 5630 5632 5634 5635 5637 5638 5639 5641 5642 5643 5644 5645 5646 5646 5647 5646 5646 5646 5645 5645 5644 5643 5642 5640 5639 5638 5636 5635 5633 5632 5632 5631 5628 5627 5625 5624 5623 5622 5621 5620 5619
5614 5616 5619 5621 5622 5624 5625 5627 5628 5629 5630 5632 5633 5633 5634 5634 5635 5635 5635 5634 5633 5632 5632 5631 5629 5628 5626 5625 5623 5622 5620 5619 5618 5617 5615 5615 5613 5611 5610 5608 5607 5606 5604
5602 5605 5607 5609 5611 5612 5614 5615 5616 5617 5619 5620 5621 5622 5622 5623 5623 5623 5623 5622 5621 5620 5619 5618 5617 5615 5613 5611 5610 5609 5607 5606 5605 5604 5602 5601 5600 5598 5596 5594 5593 5591 5590
5590 5593 5595 5597 5599 5601 5602 5604 5604 5606 5607 5608 5609 5610 5610 5611 5611 5611 5611 5610 5610 5608 5606 5605 5604 5602 5600 5599 5597 5596 5595 5593 5592 5591 5588 5587 5587 5584 5583 5581 5579 5577 5576
5578 5581 5583 5585 5587 5589 5591 5592 5593 5594 5595 5596 5597 5598 5598 5599 5598 5598 5598 5598 5597 5596 5595 5593 5592 5590 5588 5587 5585 5584 5582 5580 5579 5578 5576 5574 5572 5570 5570 5569 5566 5564 5562